sat.trackr.live / text

‹ back to catalog

STARLINK-4497

NORAD 53411 · 2022-097Z

PAYLOAD ACTIVE UNKNOWN

§ Identity

Operator
Country
US
Launch date
2022-08-10
Launch site
AFETR
Launch vehicle
Mass (kg)
RCS (m²)

Purposes: comms

External: N2YO · Heavens-Above · Gunter

§ Orbital elements

Epoch: 2026-09-20T04:00:03.000096Z

Period
94.82 min
Inclination
53.1589°
Eccentricity
0.0001630
Mean motion
15.18697927 rev/d
Perigee alt
508.7 km
Apogee alt
510.9 km
Semi-major
6,887.9 km
B*
2.3969e-3
RAAN
319.7474°
Arg perigee
143.9622°
Mean anomaly
34.3189°
Rev number
573

§ Raw data

STARLINK-44971 53411U 22097Z   26263.16670139  .00050366  00000+0  23969-2 0  99962 53411  53.1589 319.7474 0001630 143.9622  34.3189 15.18697927  5737

JSON: /api/v1/satellites/53411 · /tle

For live sub-satellite position, see the globe view (requires WebGL).

§ Visibility from observer

Set your observer location to see the next 7 days of passes ≥ 10°. The values pass through the URL so the page stays shareable.

No JS? Fill the form by hand. The geolocation button needs JavaScript.